Hayward, CA

12:58 AM PST on December 07, 2016 (GMT -0800)
Hayward Executive

Weather History for KHWD - March, 2013

Change the Weather History Date:

Wednesday, March 6, 2013

  Actual Average Record
Temperature  
Mean Temperature 51 °F 55 °F  
Max Temperature 57 °F 63 °F 74 °F (2015)
Min Temperature 44 °F 47 °F 42 °F (1999)
Degree Days  
Heating Degree Days 14    
Month to date heating degree days 62  
Since 1 July heating degree days 1866  
Cooling Degree Days 0    
Month to date cooling degree days 0  
Year to date cooling degree days 0  
Moisture  
Dew Point 42 °F    
Average Humidity 68    
Maximum Humidity 80    
Minimum Humidity 55    
Precipitation  
Precipitation 0.05 in - 0.79 in (2016)
Month to date precipitation 0.06  
Year to date precipitation 0.73  
Since 1 July precipitation 6.71  
Sea Level Pressure  
Sea Level Pressure 30.03 in    
Wind  
Wind Speed 8 mph (WSW)    
Max Wind Speed 21 mph    
Max Gust Speed 26 mph    
Visibility 10 miles    
Events Rain    
T = Trace of Precipitation, MM = Missing Value Source: NWS Daily Summary

Daily Weather History Graph

Daily Weather History Graph

Search for Another Location

Airport or City:

Trip Planner

Search our weather history database for the weather conditions in past years. The results will help you decide how hot, cold, wet, or windy it might be!

Date:

Astronomy

Mar. 06, 2013 Rise Set
Actual Time 6:32 AM PST 6:07 PM PST
Civil Twilight 6:06 AM PST 6:33 PM PST
Nautical Twilight 5:35 AM PST 7:04 PM PST
Astronomical Twilight 5:05 AM PST 7:34 PM PST
Moon 2:41 AM PST (3/6) 12:59 PM PST (3/6)
Length of Visible Light 12h 27m
Length of Day
11h 35m
Waning Crescent, 29% of the Moon is Illuminated
Mar 6
Waning Crescent
Mar 11
New
Mar 19
First Quarter
Mar 27
Full
Apr 2
Last Quarter

Hourly Weather History & Observations

Time (PST) Temp. Windchill Dew Point Humidity Pressure Visibility Wind Dir Wind Speed Gust Speed Precip Events Conditions
12:54 AM 51.1 °F - 44.1 °F 77% 29.91 in 10.0 mi South 16.1 mph 24.2 mph 0.00 in Rain Light Rain
1:54 AM 50.0 °F - 45.0 °F 83% 29.91 in 5.0 mi South 17.3 mph - 0.02 in Rain Light Rain
2:45 AM 51.8 °F - 46.4 °F 82% 29.91 in 7.0 mi SSW 16.1 mph 23.0 mph 0.03 in Rain Light Rain
2:54 AM 51.1 °F - 45.0 °F 80% 29.94 in 9.0 mi SSW 15.0 mph 21.9 mph 0.03 in Rain Light Rain
3:54 AM 51.1 °F - 46.9 °F 86% 29.94 in 8.0 mi South 11.5 mph 18.4 mph 0.00 in Rain Light Rain
4:14 AM 53.6 °F - 46.4 °F 77% 29.93 in 10.0 mi SW 15.0 mph 21.9 mph 0.00 in   Overcast
4:54 AM 52.0 °F - 46.0 °F 80% 29.97 in 10.0 mi WSW 15.0 mph 19.6 mph 0.00 in   Mostly Cloudy
5:54 AM 51.1 °F - 43.0 °F 74% 29.99 in 10.0 mi West 12.7 mph 20.7 mph N/A   Partly Cloudy
6:54 AM 50.0 °F - 42.1 °F 74% 30.03 in 10.0 mi SSW 4.6 mph - N/A   Clear
7:54 AM 51.1 °F - 43.0 °F 74% 30.05 in 10.0 mi SW 8.1 mph - N/A   Partly Cloudy
8:54 AM 53.1 °F - 43.0 °F 69% 30.08 in 10.0 mi SW 6.9 mph - N/A   Scattered Clouds
9:54 AM 54.0 °F - 42.1 °F 64% 30.09 in 10.0 mi West 8.1 mph - N/A   Mostly Cloudy
10:10 AM 53.6 °F - 41.0 °F 62% 30.07 in 10.0 mi West 9.2 mph - N/A   Scattered Clouds
10:54 AM 55.0 °F - 41.0 °F 59% 30.11 in 10.0 mi SW 9.2 mph - N/A   Mostly Cloudy
11:54 AM 55.9 °F - 39.9 °F 55% 30.11 in 10.0 mi WSW 10.4 mph - N/A   Clear
12:54 PM 55.0 °F - 39.9 °F 57% 30.11 in 10.0 mi WNW 5.8 mph - N/A   Scattered Clouds
1:54 PM 55.9 °F - 39.9 °F 55% 30.09 in 10.0 mi West 8.1 mph 17.3 mph N/A   Mostly Cloudy
2:54 PM 55.9 °F - 39.9 °F 55% 30.09 in 10.0 mi WNW 5.8 mph - N/A   Clear
3:54 PM 55.0 °F - 39.9 °F 57% 30.09 in 10.0 mi WNW 6.9 mph - N/A   Scattered Clouds
4:54 PM 54.0 °F - 39.0 °F 57% 30.08 in 10.0 mi WNW 9.2 mph - N/A   Clear
5:54 PM 53.1 °F - 39.0 °F 59% 30.06 in 10.0 mi WNW 5.8 mph - N/A   Clear
6:54 PM 51.1 °F - 39.9 °F 66% 30.07 in 10.0 mi WNW 5.8 mph - N/A   Clear
7:54 PM 50.0 °F - 41.0 °F 71% 30.06 in 10.0 mi West 5.8 mph - N/A   Mostly Cloudy
8:54 PM 50.0 °F - 39.9 °F 68% 30.06 in 10.0 mi Calm Calm - N/A   Clear
9:54 PM 48.0 °F - 39.9 °F 74% 30.06 in 10.0 mi NE 3.5 mph - N/A   Clear
10:54 PM 46.0 °F 43.1 °F 39.0 °F 76% 30.04 in 10.0 mi NE 5.8 mph - N/A   Clear
11:54 PM 44.1 °F 42.5 °F 37.9 °F 79% 30.04 in 10.0 mi NE 3.5 mph - N/A   Clear